Regional Weather Roundup
Issued by NWS

Home | Current Version | Previous Version | Text Only | Print | Product List | Glossary Off
Versions: 1 2 3 4 5 6 7 8 9 10 11 12 13 14 15 16 17 18 19 20 21 22 23 24 25 26 27 28 29 30 31 32 33 34 35 36 37 38 39 40 41 42 43 44 45 46 47 48 49 50

000
ASUS43 KFSD 290310
RWRSD

WEATHER ROUNDUP FOR SOUTH DAKOTA
NATIONAL WEATHER SERVICE SIOUX FALLS SD
1000 PM CDT TUE MAR 28 2017

NOTE: "FAIR" INDICATES FEW OR NO CLOUDS BELOW 12,000 FEET WITH NO
SIGNIFICANT WEATHER AND/OR OBSTRUCTIONS TO VISIBILITY.


SDZ001>005-009-010-012>017-290400-
NORTHWEST AND NORTH CENTRAL SOUTH DAKOTA

CITY           SKY/WX    TMP DP  RH WIND       PRES   REMARKS
BUFFALO          N/A     45  42  89 SE13      30.06R
FAITH            N/A     44  44 100 MISG      30.15R
MOBRIDGE       CLOUDY    50  36  58 SE5       30.14R
$$

SDZ012>016-024>037-041>051-057-063-072>074-290400-
SOUTHWEST AND SOUTH CENTRAL SOUTH DAKOTA

CITY           SKY/WX    TMP DP  RH WIND       PRES   REMARKS
RAPID CTY ARPT LGT RAIN  43  41  93 SE12      30.13R
PIERRE         CLOUDY    47  44  90 W9        30.16R
CUSTER         CLOUDY    37  35  92 CALM      30.11S
ELLSWORTH AFB  CLOUDY    43  43 100 CALM      30.12
PHILIP         LGT RAIN  45  45 100 SE6       30.16R
PINE RIDGE     LGT RAIN  43  41  93 CALM      30.13R
SPEARFISH      FAIR      37  36  93 SW6       30.12R
WINNER         CLOUDY    45  42  89 SW3       30.16S
$$

SDZ004>011-016>023-039-040-290400-
NORTHEAST SOUTH DAKOTA

CITY           SKY/WX    TMP DP  RH WIND       PRES   REMARKS
ABERDEEN       CLOUDY    45  34  65 E9        30.18R
WATERTOWN      CLOUDY    47  37  68 CALM      30.18R
BROOKINGS      CLOUDY    49  38  65 CALM      30.17R
SISSETON         N/A     46  39  76 NW3       30.19R
$$

SDZ017-020-022-023-036>040-048>070-290400-
SOUTHEAST SOUTH DAKOTA

CITY           SKY/WX    TMP DP  RH WIND       PRES   REMARKS
SIOUX FALLS    CLOUDY    45  37  73 NE6       30.15R
HURON          CLOUDY    49  39  68 E5        30.16R
CHAMBERLAIN    CLOUDY    49  46  88 W3        30.16S
MITCHELL       MOCLDY    50  36  58 E5        30.15S
YANKTON        CLOUDY    52  36  54 NE9       30.11F
$$

ABBREVIATIONS USED IN REMARKS
   TC - TEMPERATURE IN CELSIUS
  WCI - WIND CHILL INDEX
   HX - HEAT INDEX
  VSB - VISIBILITY




USA.gov is the U.S. government's official web portal to all federal, state and local government web resources and services.